Volver al catálogo

STARLINK-36329

ActivoComunicacionesSSO
NORAD 67739·PAYLOAD·🇺🇸 United States

Lanzado Feb 11, 2026 desde Vandenberg Space Force Base

Loading…

Próximos Pases (próximas 24 horas)

TLE

ActualizadoSource: CelesTrak SupGP

Época: Sep 14, 2026, 21:05 UTC

1 67739C 26026U   26257.87895833 -.00017885  00000+0 -55526-3 0  2574
2 67739  97.2845 309.8648 0001078 101.6160 269.2341 15.33445769    13

Sigue STARLINK-36329 en tiempo real con AllMySat

Download on the App Store